EW3148 Weather Reports


time (UTC)temp
C
wind
direction
speed
KPH
gust
KPH
rain 1hr
cm
rain 24hr
cm
rain mn
cm
humidity
%
barometer
mb
20260505092831 21 186 8.0 33.8 0.00 0.00 0.00 89 1005.1
20260505090713 21 182 6.4 27.4 0.00 0.00 0.00 88 1005.1
20260505085715 21 202 8.0 32.2 0.00 0.00 0.00 88 1005.1
20260505084720 21 195 8.0 32.2 0.00 0.00 0.00 88 1005.3
20260505083740 21 192 8.0 20.9 0.00 0.00 0.00 88 1005.3
20260505082747 21 202 8.0 32.2 0.00 0.00 0.00 89 1005.3
20260505081747 21 184 6.4 32.2 0.00 0.00 0.00 89 1005.6
20260505080754 21 174 9.7 35.4 0.00 0.00 0.00 89 1005.8
20260505075741 21 232 8.0 35.4 0.00 0.00 0.00 88 1005.7
20260505074804 21 186 6.4 27.4 0.00 0.00 0.00 88 1005.8
20260505072613 21 192 9.7 30.6 0.00 0.00 0.00 87 1006.2
20260505071541 21 202 8.0 30.6 0.00 0.00 0.00 87 1006.2
20260505070602 21 215 11.3 30.6 0.00 0.00 0.00 86 1006.3
20260505065553 21 204 9.7 30.6 0.00 0.00 0.00 86 1006.4
20260505064543 21 207 11.3 29.0 0.00 0.00 0.00 86 1006.6
20260505063554 21 196 8.0 27.4 0.00 0.00 0.00 86 1006.7
20260505062600 21 225 8.0 27.4 0.00 0.00 0.00 86 1006.9
20260505061601 21 193 9.7 27.4 0.00 0.00 0.00 86 1007.0
20260505060610 21 186 9.7 27.4 0.00 0.00 0.00 86 1007.1
20260505054458 21 205 9.7 30.6 0.00 0.00 0.00 86 1007.0
20260505053513 21 261 11.3 32.2 0.00 0.00 0.00 86 1007.0
20260505052446 21 175 9.7 32.2 0.00 0.00 0.00 86 1007.0
20260505051435 21 184 8.0 29.0 0.00 0.00 0.00 86 1006.9
20260505050454 21 195 11.3 29.0 0.00 0.00 0.00 86 1006.9
20260505033950 22 179 9.7 24.1 0.00 0.00 0.00 82 1006.9
20260505032950 22 202 8.0 19.3 0.00 0.00 0.00 81 1006.9
20260505031934 22 156 6.4 19.3 0.00 0.00 0.00 80 1006.9
20260505030954 22 173 8.0 19.3 0.00 0.00 0.00 79 1006.9
20260505025914 23 179 6.4 16.1 0.00 0.00 0.00 79 1007.1
20260505024845 23 116 8.0 19.3 0.00 0.00 0.00 78 1007.0
20260505023818 23 227 8.0 19.3 0.00 0.00 0.00 78 1007.1
20260505022743 23 189 6.4 19.3 0.00 0.00 0.00 77 1007.0
20260505021757 23 182 6.4 19.3 0.00 0.00 0.00 76 1007.0
20260505020811 23 215 6.4 19.3 0.00 0.00 0.00 76 1006.9
20260505015759 23 180 8.0 19.3 0.00 0.00 0.00 75 1006.8
20260505014755 23 174 4.8 14.5 0.00 0.00 0.00 74 1006.9
20260505013805 24 173 4.8 14.5 0.00 0.00 0.00 73 1006.8
20260505012747 24 184 4.8 14.5 0.00 0.00 0.00 72 1006.8
20260505011758 25 160 4.8 20.9 0.00 0.00 0.00 71 1006.7
20260505010811 25 162 6.4 24.1 0.00 0.00 0.00 69 1006.7
20260505005735 25 204 8.0 24.1 0.00 0.00 0.00 68 1006.6
20260505004709 25 211 9.7 20.9 0.00 0.00 0.00 67 1006.5
20260505003732 25 197 8.0 30.6 0.00 0.00 0.00 65 1006.5
20260505002708 26 186 11.3 30.6 0.00 0.00 0.00 64 1006.4
20260505001732 26 172 8.0 25.7 0.00 0.00 0.00 63 1006.4
20260505000728 26 174 11.3 25.7 0.00 0.00 0.00 63 1006.5
20260504235719 26 183 8.0 20.9 0.00 0.00 0.00 62 1006.7
20260504234728 26 207 9.7 25.7 0.00 0.00 0.00 62 1006.8
20260504233707 26 174 8.0 25.7 0.00 0.00 0.00 61 1006.9
20260504231541 27 180 11.3 27.4 0.00 0.00 0.00 61 1007.0
20260504230540 26 183 11.3 30.6 0.00 0.00 0.00 61 1007.0
20260504225513 27 197 11.3 30.6 0.00 0.00 0.00 59 1007.4
20260504223441 27 184 8.0 29.0 0.00 0.00 0.00 59 1007.6
20260504222445 27 220 11.3 29.0 0.00 0.00 0.00 60 1007.6
20260504221447 27 155 11.3 25.7 0.00 0.00 0.00 60 1007.7
20260504220509 27 207 9.7 37.0 0.00 0.00 0.00 60 1007.8
20260504215502 27 157 12.9 37.0 0.00 0.00 0.00 59 1007.8
20260504214442 27 180 11.3 30.6 0.00 0.00 0.00 60 1007.8
20260504213422 27 175 14.5 30.6 0.00 0.00 0.00 60 1007.9
20260504212433 27 164 11.3 29.0 0.00 0.00 0.00 59 1007.9
20260504210331 28 148 8.0 29.0 0.00 0.00 0.00 59 1008.3
20260504205328 27 163 12.9 32.2 0.00 0.00 0.00 58 1008.5
20260504204305 27 138 11.3 32.2 0.00 0.00 0.00 58 1008.6
20260504203308 27 225 11.3 22.5 0.00 0.00 0.00 59 1008.8
20260504202315 28 152 9.7 29.0 0.00 0.00 0.00 59 1009.0
20260504200114 27 207 12.9 24.1 0.00 0.00 0.00 58 1009.3
20260504195139 28 194 8.0 24.1 0.00 0.00 0.00 58 1009.5
20260504194134 27 162 8.0 27.4 0.00 0.00 0.00 59 1009.8
20260504193113 27 232 8.0 27.4 0.00 0.00 0.00 59 1009.8
20260504192114 26 192 6.4 32.2 0.00 0.00 0.00 63 1010.0
20260504191123 26 172 11.3 32.2 0.00 0.00 0.00 61 1010.2
20260504190148 26 174 9.7 27.4 0.00 0.00 0.00 62 1010.3
20260504185140 26 192 12.9 29.0 0.00 0.00 0.00 61 1010.3
20260504184114 26 213 11.3 29.0 0.00 0.00 0.00 61 1010.5
20260504181953 26 172 9.7 24.1 0.00 0.00 0.00 61 1010.9
20260504181003 25 196 8.0 24.1 0.00 0.00 0.00 63 1011.0
20260504180015 25 221 8.0 25.7 0.00 0.00 0.00 64 1011.1
20260504174950 25 195 9.7 30.6 0.00 0.00 0.00 63 1011.1
20260504173941 25 188 9.7 30.6 0.00 0.00 0.00 66 1011.3
20260504172956 25 182 9.7 27.4 0.00 0.00 0.00 66 1011.7
20260504171932 24 149 9.7 27.4 0.00 0.00 0.00 67 1011.9
20260504150437 20 209 8.0 20.9 0.00 0.00 0.00 77 1012.7
20260504141240 20 167 6.4 24.1 0.00 0.00 0.00 76 1012.6
20260504140259 19 140 9.7 24.1 0.00 0.00 0.00 77 1012.7